This is the latest recevied weather packets stored in our database for station/object KE8DDT-7. If no packets are shown the sender has not sent any weather packets the latest 10 day(s).
| Time | Temp. | Humidity | Pressure | Rain* | Wind** | Luminosity | Snow |
|---|---|---|---|---|---|---|---|
| 1777829346 | 15.56° C | 46% | 1003.6 hPa | 0 mm | - | 977 W/m² | - |
| 1777829046 | 15° C | 46% | 1003.8 hPa | 0 mm | - | 995 W/m² | - |
| 1777828746 | 14.44° C | 45% | 1003.9 hPa | 0 mm | - | 482 W/m² | - |
| 1777828446 | 14.44° C | 46% | 1004 hPa | 0 mm | - | 478 W/m² | - |
| 1777828146 | 14.44° C | 46% | 1004 hPa | 0 mm | - | 432 W/m² | - |
| 1777827846 | 14.44° C | 47% | 1004.1 hPa | 0 mm | - | 494 W/m² | - |
| 1777827546 | 13.89° C | 46% | 1004.2 hPa | 0 mm | - | 492 W/m² | - |
| 1777827246 | 13.89° C | 47% | 1004.3 hPa | 0 mm | - | 371 W/m² | - |
| 1777826946 | 13.89° C | 45% | 1004.4 hPa | 0 mm | - | 378 W/m² | - |
| 1777826648 | 13.89° C | 48% | 1004.5 hPa | 0 mm | - | 352 W/m² | - |
| 1777826346 | 13.89° C | 47% | 1004.5 hPa | 0 mm | - | 432 W/m² | - |
| 1777826046 | 13.89° C | 47% | 1004.5 hPa | 0 mm | - | 446 W/m² | - |
| 1777825746 | 13.89° C | 47% | 1004.6 hPa | 0 mm | - | 476 W/m² | - |
| 1777825446 | 13.33° C | 49% | 1004.7 hPa | 0 mm | - | 837 W/m² | - |
| 1777825146 | 13.33° C | 49% | 1004.8 hPa | 0 mm | - | 580 W/m² | - |
| 1777824848 | 12.78° C | 51% | 1004.9 hPa | 0 mm | - | 633 W/m² | - |
| 1777824546 | 12.22° C | 50% | 1005 hPa | 0 mm | - | 752 W/m² | - |
| 1777824246 | 11.67° C | 49% | 1005 hPa | 0 mm | - | 473 W/m² | - |
| 1777823949 | 11.67° C | 50% | 1005.1 hPa | 0 mm | - | 403 W/m² | - |
| 1777823646 | 11.67° C | 50% | 1005.1 hPa | 0 mm | - | 371 W/m² | - |
| 1777823346 | 11.11° C | 50% | 1005.1 hPa | 0 mm | - | 290 W/m² | - |
| 1777823048 | 11.11° C | 50% | 1005.1 hPa | 0 mm | - | 218 W/m² | - |
| 1777822746 | 11.67° C | 50% | 1005.2 hPa | 0 mm | - | 160 W/m² | - |
| 1777822446 | 11.67° C | 49% | 1005.2 hPa | 0 mm | - | 167 W/m² | - |
| 1777822146 | 11.67° C | 49% | 1005.3 hPa | 0 mm | - | 186 W/m² | - |
* Rain latest hour (hover to see other rain measurements)
** Current wind speed in m/s (hover to see current wind gust speed)